Regional Weather Roundup
Issued by NWS

Home | Current Version | Previous Version | Graphics & Text | Print | Product List | Glossary On
Versions: 1 2 3 4 5 6 7 8 9 10 11 12 13 14 15 16 17 18 19 20 21 22 23 24 25 26 27 28 29 30 31 32 33 34 35 36 37 38 39 40 41 42 43 44 45 46 47 48 49 50
504
ASUS45 KPSR 180210
RWRAZ

ARIZONA HOURLY REGIONAL WEATHER ROUNDUP
NATIONAL WEATHER SERVICE PHOENIX AZ
700 PM MST FRI NOV 17 2017

NOTE: FAIR INDICATES FEW OR NO CLOUDS BELOW 12,000 FEET WITH NO
SIGNIFICANT WEATHER AND/OR OBSTRUCTIONS TO VISIBILITY.

AZZ001>003-036-180300-
NORTHWEST ARIZONA

CITY           SKY/WX    TMP DP  RH WIND       PRES   REMARKS
BULLHEAD CITY  MOCLDY    77  41  27 SW6G15    29.91R
KINGMAN        MOCLDY    63  38  39 S9        30.03R
$$

AZZ004>008-015-016-018-180300-
NORTH CENTRAL ARIZONA

CITY           SKY/WX    TMP DP  RH WIND       PRES   REMARKS
GRAND CANYON   CLOUDY    48  35  60 SW12G21   30.09R
WILLIAMS       CLOUDY    46  34  61 SW8G18    30.12R
PRESCOTT       MOCLDY    55  37  50 SW9       30.07S
FLAGSTAFF      MOCLDY    42  35  76 CALM      30.12R
PAYSON         CLOUDY    48  43  81 CALM      30.12S
PAGE           MOCLDY    64  33  31 W15G26    29.89R
$$

AZZ009>014-017-180300-
NORTHEAST ARIZONA

CITY           SKY/WX    TMP DP  RH WIND       PRES   REMARKS
WINSLOW        PTCLDY    55  38  52 SW22G31   30.00R
SAINT JOHNS    CLOUDY    57  28  33 SW22G35   30.03S
WINDOW ROCK    PTCLDY    49  37  63 SW16      30.04R
SHOW LOW       MOCLDY    50  34  53 S12       30.13R
$$

AZZ540-542>544-546-548-180300-
GREATER PHOENIX AREA

CITY           SKY/WX    TMP DP  RH WIND       PRES   REMARKS
PHOENIX        CLOUDY    75  41  29 N7        29.93S
BUCKEYE        CLOUDY    72  72 100 N3        29.95R
GLENDALE       MOCLDY    70  43  37 CALM      29.96R
LUKE AFB       CLOUDY    68  45  42 CALM      29.94R
DEER VALLEY    CLOUDY    68  41  37 CALM      29.94F
SCOTTSDALE     CLOUDY    72  43  35 CALM      29.97S
MESA-FALCON    MOCLDY    73  39  29 CALM      29.96S
MESA-GATEWAY   MOCLDY    72  36  26 N3        29.96S
CHANDLER       CLEAR     75  36  23 N6        29.95R
$$

AZZ539-553-180300-
SOUTHWEST MARICOPA COUNTY AND PINAL COUNTY

CITY           SKY/WX    TMP DP  RH WIND       PRES   REMARKS
CASA GRANDE    NOT AVBL
GILA BEND      MOCLDY    79  45  29 NW5       29.94R
$$

AZZ503-504-507>509-180300-
SOUTHEAST ARIZONA

CITY           SKY/WX    TMP DP  RH WIND       PRES   REMARKS
TUCSON         PTCLDY    73  35  25 CALM      30.03R
DAVIS-MONTHAN  MOCLDY    69  34  27 NW6       30.01R
RYAN FIELD     CLEAR     70  34  26 SW5       30.03R
NOGALES        PTCLDY    65  25  22 CALM      30.09R
SIERRA VISTA   PTCLDY    62  18  18 NW8       30.13R
DOUGLAS        MOCLDY    66  18  15 NW10      30.09R
SAFFORD        PTCLDY    70  31  23 NW9       29.99R
$$

AZZ532-180300-
SOUTHWEST ARIZONA

CITY           SKY/WX    TMP DP  RH WIND       PRES   REMARKS
YUMA           CLOUDY    76  50  40 SW7       29.91F
$$

CAZ041-043-047-048-061-525>527-560>570-180300-
SOUTHERN CALIFORNIA

CITY           SKY/WX    TMP DP  RH WIND       PRES   REMARKS
DOWNTOWN L.A.  CLEAR     64  58  80 VRB3      30.03R
L.A. AIRPORT   PTCLDY    64  61  90 SW10      30.04R
SAN DIEGO      MOCLDY    65  62  90 NW7       30.06R
BURBANK        CLEAR     66  59  78 VRB6      30.03R
ONTARIO        PTCLDY    65  57  75 W8        30.04R
RIVERSIDE      CLEAR     65  58  78 W5        30.04R
PALM SPRINGS   PTCLDY    76  47  35 NW10      29.95R
EL CENTRO NAS  CLOUDY    77  48  35 W16       29.94R
IMPERIAL       CLOUDY    76  51  41 W9        29.91R
BLYTHE         CLOUDY    70  51  51 CALM      29.91S
NEEDLES        CLOUDY    76  43  30 W6        29.92R
$$

NVZ020-UTZ003-180300-
SOUTHERN NEVADA-UTAH

CITY           SKY/WX    TMP DP  RH WIND       PRES   REMARKS
LAS VEGAS      PTCLDY    70  29  21 NW22G36   29.97R
SALT LAKE CITY PTCLDY    39  27  62 NW17G29   30.15R WCI  30
$$

NMZ009-TXZ055-180300-
NEW MEXICO-WEST TEXAS

CITY           SKY/WX    TMP DP  RH WIND       PRES   REMARKS
ALBUQUERQUE    CLOUDY    58  40  51 SW18G30   29.99R
EL PASO        MOCLDY    78  19  11 W21G29    29.96R
$$


........................KEY........................
SKY/WX - SKY CONDITION/WEATHER
TMP    - TEMPERATURE IN FAHRENHEIT
DP     - DEW POINT IN FAHRENHEIT
RH     - RELATIVE HUMIDITY IN PERCENT
WIND   - DIRECTION AND SPEED IN MILES PER HOUR (MPH)
VRB    - VARIABLE WIND DIRECTION
PRES   - MEAN SEA LEVEL PRESSURE IN INCHES OF MERCURY
         F - FALLING PRESSURE   R - RISING PRESSURE
         S - STEADY PRESSURE
VSB    - VISIBILITY IN MILES
HX     - HEAT INDEX IN FAHRENHEIT
WCI    - WIND CHILL INDEX IN FAHRENHEIT
TC     - TEMPERATURE IN CELSIUS WHICH IS ALSO KNOWN AS
         TEMPERATURE IN CENTIGRADE
AFB    - AIR FORCE BASE
         LUKE AFB IS LUKE AIR FORCE BASE
         DAVIS-MONTHAN IS DAVIS-MONTHAN AIR FORCE BASE
NAS    - NAVAL AIR STATION
         EL CENTRO NAS IS EL CENTRO NAVAL AIR STATION
N/A    - NOT AVAILABLE





USA.gov is the U.S. government's official web portal to all federal, state and local government web resources and services.